FENGYUN 1C DEB, 33647

Orbit data source: Space-Track

FENGYUN 1C DEB, 33647 is space debris in SSO originally from a launch on Mon, 10 May 1999 UTC launched from the Taiyaun Space Center, China (TSC). Fengyun 1C debris stems from the Chinese weather satellite Fengyun-1C, which was intentionally destroyed by a Chinese anti-satellite missile in 2007. This event dramatically increased the amount of space debris, with thousands of trackable fragments posing hazards to satellites and human spaceflight. The Fengyun 1C debris cloud has become a focal point in discussions about space sustainability and the need for international regulations to prevent the creation of new debris.

Loading next visibility...
Identifier
33647, 1999-025DEG
Orbit
SSO
Country
Flag of CNCN / PRC
Related business
Manufacturer
Unknown
Mission
Spacecraft
Bus & Motor
Unknown
Mass
Unknown
Launch date (UTC)
1999-05-10 (27 years ago)
Launch vehicle
Unknown
Launch site
Taiyaun Space Center, China (TSC)
Object type
Payload
Rocket body
Debris
Shape & HBR
Unknown shape, 1.1 m
Radar Cross Section
Medium (>0.1 m² and <1 m²)

Expand to show TLE details & history
Last TLE update: 3 weeks ago

TLE from 3 weeks ago
0 FENGYUN 1C DEB
1 33647U 99025DEG 26150.34103219  .00002205  00000-0  14453-2 0  9993
2 33647  98.1982 351.0625 0241884 346.1281  13.3313 13.89679803651860
Epoch: 2026-05-30T08:11Z
TLE epoch observation values (Epoch: 2026-05-30T08:11:05.181Z)
Latitude
0.00006°
Longitude
-19.56755°
Altitude
760.844 km
Speed
7.561 km/s
True Right ascension
23h 24m 14s
True Declination
0° 00' 00"
Sunlit
Object was in daylight at epoch
Visualization orbit readout
Latitude
Unknown
Longitude
Unknown
Altitude
Unknown
Speed
Unknown
Apparent Right ascension
Unknown
Apparent Declination
Unknown
Sunlit
N/A
Visualization observer readout
Local Sidereal Time
08:38:02
Azimuth
Unknown
Elevation
Unknown
Doppler factor
Unknown
Orbital elements
Apogee altitude
1,103.624 km
Perigee altitude
750.229 km
Semi-major axis
7,305.064 km
Eccentricity
0.02419
Inclination
98.1982°
RAAN
351.0625°
Arg. of periapsis
346.1281°
True anomaly
13.98976°
Mean anomaly
13.3313°
Eccentric anomaly
13.65856°
Mean motion
3.47622 °/min
Orbital period
103.56 mins
BSTAR
0.0014453
Loading maneuver chart data...
Computing Atmospheric mass density...
Loading historical data...
Loading historical data...
Loading historical data...
Loading historical data...
Loading historical data...
Loading historical data...
Loading historical data...

Documentation

Showing up to 5 results
|